Wind_Speed
40 39 36 31 35 34 31 31 30 29 31 34 34 31 28 32 27 24 28 31 30 30 30 28 27 28 29 30 30 30 29 29 29 29 27 27 28 28 28 27 28 29 28 28
46 44 38 39 39 37 35 34 34 33 35 40 38 38 32 32 31 28 30 31 33 32 29 29 28 29 30 30 30 31 31 31 32 32 32 32 32 30 30 31 32 32 30 31
50 48 44 43 42 40 38 37 37 39 39 41 43 45 38 33 33 31 30 32 35 35 34 32 32 30 31 30 31 32 33 34 34 35 36 36 36 34 33 33 35 35 34 34
54 50 47 44 42 43 42 41 42 42 43 42 44 55 42 38 34 34 33 35 37 38 37 36 35 33 33 35 35 34 35 36 36 37 38 38 39 39 38 38 37 37 37 37
53 51 49 48 45 45 45 44 44 45 45 46 51 53 48 43 38 35 35 33 37 38 39 37 37 39 36 36 37 36 36 36 35 40 40 40 40 42 42 41 40 40 40 41
57 56 53 50 48 47 47 47 47 46 47 51 55 54 50 45 44 37 39 36 40 44 42 39 39 40 39 39 40 40 41 41 42 42 42 41 42 43 44 43 42 43 43 43
59 57 56 53 52 50 48 47 47 49 51 52 56 60 54 46 48 46 40 31 31 37 36 38 39 40 40 41 40 40 41 42 42 39 38 42 43 45 45 45 45 46 44 44
60 61 58 56 53 52 49 47 49 53 54 54 57 63 60 49 45 47 34 28 31 35 36 35 37 39 40 42 43 43 41 41 41 40 39 42 44 46 47 47 46 46 45 46
60 61 60 56 54 51 53 54 52 52 55 60 65 61 60 53 48 46 40 32 27 31 35 37 39 39 41 44 44 42 40 38 40 42 42 42 43 45 46 47 47 46 47 47
59 62 62 60 59 58 58 57 55 57 58 61 67 67 62 60 54 42 42 39 41 32 34 38 40 41 43 42 41 41 40 39 40 40 40 41 41 42 44 45 46 48 48 49
64 66 69 67 67 65 63 63 64 63 63 64 68 67 62 61 57 55 50 46 39 33 33 35 38 42 42 43 42 41 42 42 42 42 42 42 42 44 45 46 48 51 52 52
61 67 75 73 73 71 70 70 71 71 70 67 66 61 58 60 59 51 48 40 32 33 33 31 34 39 40 41 42 42 43 43 44 45 44 46 46 46 48 50 52 53 54 56
47 55 63 70 74 79 79 72 67 67 67 71 71 62 61 60 57 54 52 50 47 42 41 42 43 43 41 42 43 43 42 42 43 46 47 48 49 49 50 52 55 56 57 57
42 47 49 59 62 63 65 63 60 58 60 71 65 54 52 54 55 55 54 55 55 50 42 46 46 44 45 44 43 44 45 44 45 47 49 50 51 53 54 56 57 57 59 61
54 57 51 45 52 55 59 61 63 65 65 65 56 58 44 51 55 59 54 52 49 43 45 48 48 47 44 46 47 48 48 47 47 48 49 51 53 55 56 58 61 63 65 66
63 61 53 57 50 53 58 59 63 66 66 66 68 66 50 51 52 52 52 51 50 51 53 54 52 51 52 53 51 51 48 47 47 47 48 51 54 56 57 59 61 64 66 68
68 67 64 64 57 59 63 59 61 61 60 60 63 59 53 56 58 53 52 54 57 59 59 55 55 55 56 56 54 49 48 49 48 49 50 52 53 54 57 61 65 67 69 68
52 51 62 65 65 71 57 53 55 58 57 57 57 52 50 52 56 56 56 58 56 56 58 60 61 61 58 58 56 54 50 47 48 47 47 50 53 57 62 66 67 65 66 68
55 51 57 64 66 70 65 57 60 64 60 53 52 49 50 50 57 56 52 53 53 53 55 57 57 56 56 54 52 53 53 51 50 51 53 54 55 57 59 63 64 66 66 69
61 57 66 65 63 58 59 57 65 62 63 57 59 54 53 55 62 58 60 61 62 61 62 61 61 59 58 60 60 59 58 57 57 58 60 62 62 61 62 63 65 64 68 72
75 58 66 67 67 71 64 60 61 69 64 65 66 61 57 60 61 60 62 65 67 70 70 71 68 66 65 64 64 63 62 63 64 64 61 60 61 61 61 61 61 63 66 64
70 76 76 72 63 59 57 66 66 60 61 63 68 66 60 60 62 57 58 63 64 66 69 71 72 69 66 64 64 63 62 61 60 60 59 58 57 57 57 55 61 62 64 63
70 69 82 71 62 55 57 54 55 60 63 62 64 63 64 66 67 67 62 60 58 61 67 71 69 66 63 64 63 60 60 59 58 57 56 56 54 52 55 58 61 64 65 65
89 81 76 72 64 64 61 57 56 60 57 57 62 65 62 61 61 63 62 61 64 62 64 65 63 60 60 60 60 58 58 57 56 56 56 54 54 55 57 58 60 61 63 65
59 57 66 82 79 71 68 66 68 67 68 66 58 50 47 45 46 46 46 50 55 58 58 58 58 55 54 54 55 56 56 57 56 55 55 55 56 57 58 59 61 64 67 69
59 44 51 51 57 64 68 71 70 67 68 72 70 65 61 59 58 57 57 55 53 45 48 49 47 48 49 49 50 51 52 52 53 54 55 56 57 58 59 62 64 67 70 73
Wind_Direction
235 237 239 240 242 246 249 253 257 262 266 266 268 267 271 278 285 290 299 305 303 297 286 283 275 268 266 265 264 264 265 265 266 268 270 272 273 275 278 277 273 271 272 271
236 239 238 241 246 250 253 257 261 262 264 265 267 269 268 273 281 287 299 301 299 294 286 277 274 270 266 264 266 268 268 268 269 269 268 271 274 276 276 277 275 273 270 270
238 240 240 242 246 251 254 258 261 262 263 267 272 268 268 270 276 283 293 295 292 285 278 273 272 269 269 267 265 265 267 270 272 273 271 271 272 274 274 272 271 273 274 275
239 242 244 247 250 252 253 256 260 264 267 269 270 273 267 271 274 282 292 290 287 282 271 270 272 270 267 266 268 271 273 274 275 274 272 270 269 271 273 275 275 273 273 274
241 243 245 246 248 251 254 257 261 266 269 270 268 274 277 275 272 280 289 287 280 279 272 265 268 271 270 272 271 272 275 275 278 274 270 269 268 268 269 272 273 272 271 272
242 244 246 248 250 254 257 259 262 264 268 268 272 277 274 281 285 287 296 290 271 269 273 268 268 268 269 270 273 277 277 276 277 284 268 267 267 267 268 271 272 270 269 270
246 247 249 250 252 253 256 260 265 266 265 270 275 277 277 278 284 292 297 282 274 268 268 265 267 270 271 272 274 279 281 276 275 283 271 267 269 269 268 268 270 268 267 268
249 248 249 252 255 258 257 257 259 265 269 270 271 273 280 284 286 293 291 278 274 267 265 264 266 267 266 269 272 274 277 275 272 276 275 270 270 270 268 268 268 264 264 266
253 252 252 253 255 256 259 259 260 263 265 268 271 273 279 283 286 283 280 281 273 265 265 270 270 272 273 271 273 275 278 277 273 275 275 274 272 271 267 266 265 264 265 267
251 253 251 252 253 254 257 258 257 258 261 266 270 273 277 284 287 274 273 273 287 270 262 265 268 273 274 273 273 276 274 274 272 273 273 274 273 271 270 266 263 263 265 267
252 252 251 250 252 254 255 257 259 261 262 264 269 270 276 278 280 278 278 280 280 268 258 260 261 261 267 270 272 275 276 275 274 275 273 271 270 270 268 265 264 265 267 269
253 253 252 253 255 255 256 258 259 259 262 265 268 269 273 277 275 277 279 281 272 271 271 264 261 261 265 270 272 273 275 277 279 279 278 276 272 268 267 266 267 268 269 270
251 249 253 253 253 254 256 258 260 261 261 266 268 269 271 267 272 276 279 278 277 268 267 268 267 265 267 270 271 270 271 274 277 278 277 276 274 268 266 267 267 268 269 269
244 244 248 253 256 254 254 256 257 256 256 265 262 269 265 268 266 269 271 272 274 277 275 270 271 266 265 267 270 272 273 273 274 275 274 272 271 270 269 268 270 271 270 271
241 255 248 245 247 248 251 251 251 255 261 257 263 261 255 258 261 265 266 269 274 273 268 270 271 273 273 275 275 274 272 271 271 272 273 272 272 269 271 274 274 274 274 275
250 252 250 242 243 248 248 249 255 257 255 254 263 261 265 265 266 264 266 268 267 269 270 272 275 277 279 280 279 280 277 276 275 273 271 270 271 272 273 273 273 275 276 278
256 254 254 252 246 255 254 252 257 258 259 261 260 265 261 257 258 259 261 262 264 266 269 272 274 274 276 279 278 277 275 275 274 273 272 271 270 272 274 273 273 274 276 279
245 257 257 257 260 259 252 248 252 256 255 256 259 260 260 262 259 257 259 262 265 266 267 269 271 273 275 276 279 280 277 273 271 271 272 272 272 273 273 271 272 276 279 281
238 241 254 267 266 266 260 251 254 258 254 257 260 258 257 265 267 261 265 265 265 266 267 269 270 272 273 274 275 275 274 272 272 273 273 272 270 270 269 271 273 275 277 278
237 247 257 245 253 250 262 257 256 254 258 254 260 262 264 265 266 261 263 265 265 266 268 268 267 267 268 269 269 270 272 273 273 274 275 275 274 272 270 270 273 275 276 278
247 235 234 242 252 257 248 247 253 261 262 258 265 265 261 260 265 264 262 265 266 266 267 267 268 269 270 270 271 272 272 272 272 273 273 272 273 273 273 272 274 274 275 275
243 237 238 239 249 258 254 253 260 264 268 267 266 267 265 260 259 263 266 264 269 271 272 272 271 271 270 270 271 272 272 271 271 273 273 271 269 270 271 270 269 271 275 276
246 240 244 252 250 251 250 253 259 264 269 270 270 268 269 267 265 266 268 264 266 272 271 270 270 270 270 270 270 271 271 271 271 270 269 269 270 269 267 268 269 271 274 276
249 249 252 254 257 259 257 259 259 258 257 258 261 265 261 262 262 262 263 266 269 267 266 265 266 268 269 268 269 270 270 270 270 270 270 270 268 268 269 270 272 274 276 277
247 241 250 253 254 257 256 259 259 260 260 259 252 251 254 259 268 267 269 272 272 270 267 268 269 270 270 270 270 270 269 270 271 271 272 271 270 270 270 271 271 272 273 275
224 228 232 237 248 254 254 256 259 262 263 264 264 265 275 278 280 277 278 280 284 271 281 272 271 273 274 275 275 275 274 273 271 269 268 268 269 271 272 273 274 275 275 276
Height
5811 5814 5819 5821 5820 5823 5825 5827 5828 5829 5829 5828 5829 5832 5835 5831 5834 5835 5834 5833 5831 5829 5827 5826 5826 5826 5826 5826 5826 5827 5828 5828 5829 5829 5830 5830 5829 5829 5828 5827 5827 5827 5826 5825
5803 5806 5811 5813 5814 5817 5819 5820 5822 5822 5821 5819 5821 5823 5828 5828 5828 5829 5829 5827 5824 5823 5821 5819 5818 5818 5819 5819 5820 5820 5821 5821 5821 5822 5823 5823 5822 5822 5822 5821 5820 5819 5819 5818
5793 5798 5802 5804 5806 5810 5812 5812 5812 5812 5812 5813 5812 5811 5819 5823 5823 5824 5823 5821 5817 5815 5813 5812 5811 5811 5811 5812 5812 5812 5813 5814 5814 5815 5815 5815 5815 5815 5814 5813 5812 5811 5811 5810
5784 5789 5794 5798 5801 5800 5803 5803 5802 5804 5804 5806 5805 5793 5809 5815 5818 5818 5817 5813 5810 5807 5805 5805 5804 5804 5804 5804 5804 5806 5806 5806 5806 5806 5806 5806 5806 5806 5806 5805 5804 5803 5802 5802
5780 5781 5783 5787 5792 5790 5794 5794 5795 5795 5795 5796 5793 5789 5797 5804 5809 5812 5810 5806 5801 5797 5796 5798 5797 5795 5796 5796 5796 5797 5797 5798 5798 5797 5796 5796 5797 5796 5796 5796 5796 5795 5794 5793
5766 5769 5774 5778 5781 5782 5785 5785 5785 5785 5786 5786 5782 5783 5789 5794 5795 5799 5801 5795 5789 5789 5788 5788 5787 5786 5787 5787 5787 5787 5788 5788 5788 5787 5786 5786 5786 5786 5786 5786 5786 5785 5785 5784
5755 5760 5764 5768 5770 5772 5774 5776 5775 5774 5775 5778 5772 5769 5779 5787 5785 5788 5790 5786 5781 5781 5780 5779 5778 5778 5778 5778 5778 5778 5778 5778 5777 5776 5776 5776 5776 5776 5776 5776 5776 5776 5775 5774
5742 5747 5753 5759 5761 5761 5762 5765 5766 5762 5764 5770 5765 5759 5762 5775 5777 5777 5776 5778 5775 5773 5772 5771 5770 5770 5769 5769 5769 5769 5768 5767 5766 5767 5766 5766 5765 5765 5765 5765 5765 5765 5765 5764
5728 5732 5740 5746 5746 5748 5751 5752 5757 5752 5754 5752 5753 5757 5753 5761 5767 5767 5765 5768 5768 5765 5763 5763 5761 5761 5760 5759 5758 5758 5758 5756 5756 5756 5756 5755 5755 5755 5754 5754 5754 5754 5754 5753
5714 5716 5725 5728 5732 5734 5736 5741 5740 5740 5741 5741 5744 5742 5745 5748 5752 5754 5755 5756 5755 5756 5755 5754 5753 5752 5750 5749 5748 5748 5747 5747 5746 5746 5745 5745 5744 5744 5744 5743 5744 5743 5743 5743
5701 5702 5708 5711 5716 5722 5724 5726 5728 5728 5728 5728 5731 5735 5742 5740 5740 5740 5742 5745 5744 5744 5743 5743 5742 5742 5741 5740 5739 5738 5738 5737 5736 5736 5735 5735 5735 5734 5733 5733 5734 5733 5732 5732
5689 5685 5692 5698 5700 5704 5706 5712 5712 5710 5715 5717 5722 5724 5731 5731 5727 5730 5729 5733 5735 5734 5733 5733 5732 5731 5732 5731 5730 5728 5728 5727 5727 5726 5725 5724 5723 5723 5723 5723 5723 5722 5721 5719
5673 5670 5676 5678 5684 5686 5688 5694 5697 5698 5701 5706 5706 5715 5720 5719 5719 5719 5719 5719 5721 5723 5723 5722 5720 5719 5719 5718 5718 5717 5717 5716 5716 5715 5714 5713 5713 5712 5712 5711 5710 5709 5708 5707
5658 5655 5660 5666 5672 5674 5676 5680 5682 5684 5684 5692 5691 5702 5708 5706 5707 5708 5706 5705 5704 5706 5709 5707 5707 5707 5708 5708 5707 5707 5706 5705 5704 5703 5702 5702 5702 5701 5700 5698 5697 5697 5695 5693
5640 5642 5648 5654 5655 5657 5658 5662 5664 5666 5676 5669 5687 5683 5696 5694 5692 5687 5691 5694 5694 5695 5694 5693 5692 5693 5697 5697 5695 5694 5694 5692 5691 5691 5691 5690 5689 5688 5688 5687 5686 5684 5681 5679
5625 5626 5633 5637 5645 5643 5641 5645 5652 5653 5656 5653 5666 5667 5689 5685 5681 5680 5679 5679 5680 5680 5680 5680 5682 5683 5682 5680 5681 5680 5680 5679 5680 5679 5679 5677 5675 5675 5675 5673 5671 5669 5667 5664
5611 5614 5618 5618 5632 5625 5620 5639 5641 5642 5646 5648 5647 5663 5670 5665 5660 5663 5665 5668 5666 5665 5666 5669 5669 5669 5668 5667 5666 5666 5666 5665 5666 5666 5664 5664 5664 5663 5662 5659 5656 5653 5651 5649
5597 5600 5602 5604 5608 5597 5621 5630 5630 5627 5632 5633 5637 5648 5654 5649 5647 5645 5652 5652 5653 5654 5654 5654 5653 5654 5654 5654 5655 5654 5655 5653 5652 5652 5652 5652 5651 5649 5647 5644 5641 5639 5637 5634
5584 5586 5585 5585 5590 5590 5604 5620 5617 5612 5620 5624 5624 5632 5636 5635 5625 5635 5640 5636 5636 5636 5637 5638 5639 5640 5640 5640 5640 5641 5641 5640 5639 5640 5638 5637 5634 5633 5631 5629 5627 5624 5621 5617
5569 5573 5575 5572 5572 5571 5593 5598 5599 5593 5596 5620 5611 5618 5621 5616 5609 5626 5618 5619 5619 5620 5622 5623 5623 5624 5625 5625 5625 5625 5626 5625 5625 5624 5622 5620 5619 5617 5616 5613 5610 5608 5604 5600
5552 5556 5556 5559 5557 5559 5581 5580 5579 5575 5594 5595 5592 5600 5605 5602 5599 5604 5607 5605 5605 5605 5607 5608 5608 5608 5609 5609 5609 5609 5608 5608 5606 5605 5605 5603 5602 5601 5598 5597 5595 5592 5587 5583
5535 5540 5541 5544 5545 5546 5563 5564 5564 5566 5568 5574 5574 5578 5584 5588 5588 5588 5591 5591 5589 5589 5590 5591 5592 5592 5591 5591 5591 5591 5590 5589 5588 5587 5586 5585 5584 5584 5582 5580 5577 5574 5571 5567
5512 5520 5524 5527 5529 5538 5545 5547 5547 5548 5554 5557 5557 5559 5563 5567 5569 5571 5573 5576 5576 5575 5574 5574 5574 5574 5574 5573 5573 5573 5572 5571 5569 5568 5568 5568 5568 5566 5565 5563 5561 5558 5554 5551
5499 5506 5506 5512 5518 5523 5527 5529 5532 5533 5537 5541 5544 5544 5546 5547 5550 5552 5553 5555 5557 5559 5559 5558 5558 5557 5556 5556 5555 5555 5554 5553 5553 5552 5552 5551 5550 5549 5547 5546 5544 5541 5538 5535
5486 5491 5493 5498 5504 5507 5512 5515 5517 5521 5523 5527 5530 5530 5531 5532 5534 5535 5535 5536 5537 5538 5538 5538 5538 5538 5538 5538 5538 5539 5539 5538 5537 5536 5536 5535 5534 5533 5531 5529 5527 5524 5521 5518
5471 5475 5478 5481 5487 5489 5498 5501 5503 5506 5508 5510 5514 5517 5515 5516 5518 5519 5520 5521 5522 5522 5522 5522 5521 5520 5521 5521 5522 5522 5523 5523 5522 5520 5519 5518 5517 5515 5514 5512 5509 5506 5502 5498